01.01.2017 00:15;2160
01.01.2017 00:30;2160
01.01.2017 00:45;2160
01.01.2017 01:00;2136
01.01.2017 01:15;2136
01.01.2017 01:30;2088
01.01.2017 01:45;2088
01.01.2017 02:00;2052
01.01.2017 02:15;2064
01.01.2017 02:30;2100
01.01.2017 02:45;2052
01.01.2017 03:00;2040
01.01.2017 03:15;2040
01.01.2017 03:30;2136
01.01.2017 03:45;2184
01.01.2017 04:00;2220
01.01.2017 04:15;2016
01.01.2017 04:30;1980
01.01.2017 04:45;1992
01.01.2017 05:00;2004
01.01.2017 05:15;2028
01.01.2017 05:30;2016
01.01.2017 05:45;2028
01.01.2017 06:00;2040
01.01.2017 06:15;2040
01.01.2017 06:30;1992
01.01.2017 06:45;1944
01.01.2017 07:00;1896
01.01.2017 07:15;1812
01.01.2017 07:30;1824
01.01.2017 07:45;1896
01.01.2017 08:00;1968
01.01.2017 08:15;1968
01.01.2017 08:30;1968
01.01.2017 08:45;1956
01.01.2017 09:00;2040
01.01.2017 09:15;2088
01.01.2017 09:30;2088
01.01.2017 09:45;1980
01.01.2017 10:00;1896
01.01.2017 10:15;1884
01.01.2017 10:30;1944
01.01.2017 10:45;1896
01.01.2017 11:00;1896
01.01.2017 11:15;1848
01.01.2017 11:30;1824
01.01.2017 11:45;1872
01.01.2017 12:00;1944
01.01.2017 12:15;1992
01.01.2017 12:30;2004
01.01.2017 12:45;2076
01.01.2017 13:00;2016
01.01.2017 13:15;2040
01.01.2017 13:30;2028
01.01.2017 13:45;2040
01.01.2017 14:00;1968
01.01.2017 14:15;1980
01.01.2017 14:30;1956
01.01.2017 14:45;1920
01.01.2017 15:00;1956
01.01.2017 15:15;1944
01.01.2017 15:30;1896
01.01.2017 15:45;1968
01.01.2017 16:00;2040
01.01.2017 16:15;2076
01.01.2017 16:30;2064
01.01.2017 16:45;1920
01.01.2017 17:00;1956
01.01.2017 17:15;1920
01.01.2017 17:30;1932
01.01.2017 17:45;1920
01.01.2017 18:00;1896
01.01.2017 18:15;1884
01.01.2017 18:30;1800
01.01.2017 18:45;1872
01.01.2017 19:00;1836
01.01.2017 19:15;1812
01.01.2017 19:30;1824
01.01.2017 19:45;1776
01.01.2017 20:00;1680
01.01.2017 20:15;1716
01.01.2017 20:30;1740
01.01.2017 20:45;1788
01.01.2017 21:00;1692
01.01.2017 21:15;1788
01.01.2017 21:30;1752
01.01.2017 21:45;1752
01.01.2017 22:00;1680
01.01.2017 22:15;1740
01.01.2017 22:30;1824
01.01.2017 22:45;1836
01.01.2017 23:00;1848
01.01.2017 23:15;1908
01.01.2017 23:30;1884
01.01.2017 23:45;1992
02.01.2017 00:00;1944
02.01.2017 00:15;1980
02.01.2017 00:30;1944
02.01.2017 00:45;2016
02.01.2017 01:00;1944
02.01.2017 01:15;1980
02.01.2017 01:30;1968
02.01.2017 01:45;1932
02.01.2017 02:00;1968
02.01.2017 02:15;1968
02.01.2017 02:30;1992
02.01.2017 02:45;1980
02.01.2017 03:00;2004
02.01.2017 03:15;1992
02.01.2017 03:30;2064
02.01.2017 03:45;2016
02.01.2017 04:00;2064
02.01.2017 04:15;2040
02.01.2017 04:30;1992
02.01.2017 04:45;1944
02.01.2017 05:00;1956
02.01.2017 05:15;1932
02.01.2017 05:30;1932
02.01.2017 05:45;1932
02.01.2017 06:00;1860
02.01.2017 06:15;1476
02.01.2017 06:30;1812
02.01.2017 06:45;1740
02.01.2017 07:00;1644
02.01.2017 07:15;1548
02.01.2017 07:30;1452
02.01.2017 07:45;1404
02.01.2017 08:00;1308
02.01.2017 08:15;1260
02.01.2017 08:30;1200
02.01.2017 08:45;1200
02.01.2017 09:00;1356
02.01.2017 09:15;1380
02.01.2017 09:30;1464
02.01.2017 09:45;1440
02.01.2017 10:00;1428
02.01.2017 10:15;1428
02.01.2017 10:30;1560
02.01.2017 10:45;1524
02.01.2017 11:00;1524
02.01.2017 11:15;1500
02.01.2017 11:30;1512
02.01.2017 11:45;1560
02.01.2017 12:00;1560
02.01.2017 12:15;1488
02.01.2017 12:30;1548
02.01.2017 12:45;1440
02.01.2017 13:00;1500
02.01.2017 13:15;1512
02.01.2017 13:30;1488
02.01.2017 13:45;1500
02.01.2017 14:00;1512
02.01.2017 14:15;1524
02.01.2017 14:30;1620
02.01.2017 14:45;1620
02.01.2017 15:00;1680
02.01.2017 15:15;1620
02.01.2017 15:30;1716
02.01.2017 15:45;1632
02.01.2017 16:00;1572
02.01.2017 16:15;1584
02.01.2017 16:30;1572
02.01.2017 16:45;1704
02.01.2017 17:00;1608
02.01.2017 17:15;1680
02.01.2017 17:30;1848
02.01.2017 17:45;1908
02.01.2017 18:00;1992
02.01.2017 18:15;1920
02.01.2017 18:30;1920
02.01.2017 18:45;1908
02.01.2017 19:00;1860
02.01.2017 19:15;2028
02.01.2017 19:30;1860
02.01.2017 19:45;1884
02.01.2017 20:00;1848
02.01.2017 20:15;1848
02.01.2017 20:30;1872
02.01.2017 20:45;2076
02.01.2017 21:00;1956
02.01.2017 21:15;1944
02.01.2017 21:30;1980
02.01.2017 21:45;2016
02.01.2017 22:00;2016
02.01.2017 22:15;1956
02.01.2017 22:30;1956
02.01.2017 22:45;2016
02.01.2017 23:00;1968
02.01.2017 23:15;2004
02.01.2017 23:30;1992
02.01.2017 23:45;2016
03.01.2017 00:00;1944
03.01.2017 00:15;2004
03.01.2017 00:30;2040
03.01.2017 00:45;1968
03.01.2017 01:00;1932
03.01.2017 01:15;1968
03.01.2017 01:30;1872
03.01.2017 01:45;1980
03.01.2017 02:00;2148
03.01.2017 02:15;2112
03.01.2017 02:30;2028
03.01.2017 02:45;2208
03.01.2017 03:00;2904
03.01.2017 03:15;2592
03.01.2017 03:30;2868
03.01.2017 03:45;2400
03.01.2017 04:00;2304
03.01.2017 04:15;2400
03.01.2017 04:30;2220
03.01.2017 04:45;1944
03.01.2017 05:00;2016
03.01.2017 05:15;2172
03.01.2017 05:30;2304
03.01.2017 05:45;2292
03.01.2017 06:00;2580
03.01.2017 06:15;2400
03.01.2017 06:30;2088
03.01.2017 06:45;1584
03.01.2017 07:00;1572
03.01.2017 07:15;1560
03.01.2017 07:30;1524
03.01.2017 07:45;1452
03.01.2017 08:00;1452
03.01.2017 08:15;1416
03.01.2017 08:30;1452
03.01.2017 08:45;1512
03.01.2017 09:00;1512
03.01.2017 09:15;1476
03.01.2017 09:30;1440
03.01.2017 09:45;1464
03.01.2017 10:00;1440
03.01.2017 10:15;1428
03.01.2017 10:30;1380
03.01.2017 10:45;1392
03.01.2017 11:00;1212
03.01.2017 11:15;1248
03.01.2017 11:30;1200
03.01.2017 11:45;1224
03.01.2017 12:00;3240
03.01.2017 12:15;2568
03.01.2017 12:30;3060
03.01.2017 12:45;2544
03.01.2017 13:00;1464
03.01.2017 13:15;1236
03.01.2017 13:30;1200
03.01.2017 13:45;1212
03.01.2017 14:00;1176
03.01.2017 14:15;1248
03.01.2017 14:30;1572
03.01.2017 14:45;1608
03.01.2017 15:00;1800
03.01.2017 15:15;1824
03.01.2017 15:30;1716
03.01.2017 15:45;1632
03.01.2017 16:00;2112
03.01.2017 16:15;1692
03.01.2017 16:30;1728
03.01.2017 16:45;2064
03.01.2017 17:00;2424
03.01.2017 17:15;2160
03.01.2017 17:30;2076
03.01.2017 17:45;2952
03.01.2017 18:00;3192
03.01.2017 18:15;3744
03.01.2017 18:30;2508
03.01.2017 18:45;3492
03.01.2017 19:00;4188
03.01.2017 19:15;5568
03.01.2017 19:30;6024
03.01.2017 19:45;4284
03.01.2017 20:00;3144
03.01.2017 20:15;3828
03.01.2017 20:30;4236
03.01.2017 20:45;5700
03.01.2017 21:00;5100
03.01.2017 21:15;4272
03.01.2017 21:30;3816
03.01.2017 21:45;4896
03.01.2017 22:00;4716
03.01.2017 22:15;3876
03.01.2017 22:30;3696
03.01.2017 22:45;3912
03.01.2017 23:00;3468
03.01.2017 23:15;3876
03.01.2017 23:30;3804
03.01.2017 23:45;3816
04.01.2017 00:00;3324
04.01.2017 00:15;3888
04.01.2017 00:30;4896
04.01.2017 00:45;6204
04.01.2017 01:00;5004
04.01.2017 01:15;5052
04.01.2017 01:30;5268
04.01.2017 01:45;6588
04.01.2017 02:00;7200
04.01.2017 02:15;6228
04.01.2017 02:30;6216
04.01.2017 02:45;7008
04.01.2017 03:00;7452
04.01.2017 03:15;6948
04.01.2017 03:30;7452
04.01.2017 03:45;6540
04.01.2017 04:00;5184
04.01.2017 04:15;4716
04.01.2017 04:30;5028
04.01.2017 04:45;5928
04.01.2017 05:00;6708
04.01.2017 05:15;7380
04.01.2017 05:30;7056
04.01.2017 05:45;6924
04.01.2017 06:00;6840
04.01.2017 06:15;7896
04.01.2017 06:30;6336
04.01.2017 06:45;5196
04.01.2017 07:00;6312
04.01.2017 07:15;7224
04.01.2017 07:30;6948
04.01.2017 07:45;7212
04.01.2017 08:00;6984
04.01.2017 08:15;6912
04.01.2017 08:30;6864
04.01.2017 08:45;6840
04.01.2017 09:00;6840
04.01.2017 09:15;7080
04.01.2017 09:30;7128
04.01.2017 09:45;7068
04.01.2017 10:00;7068
04.01.2017 10:15;6960
04.01.2017 10:30;6960
04.01.2017 10:45;6888
04.01.2017 11:00;6876
04.01.2017 11:15;6972
04.01.2017 11:30;6828
04.01.2017 11:45;6828
04.01.2017 12:00;6876
04.01.2017 12:15;6912
04.01.2017 12:30;6924
04.01.2017 12:45;6948
04.01.2017 13:00;7068
04.01.2017 13:15;7080
04.01.2017 13:30;7068
04.01.2017 13:45;7176
04.01.2017 14:00;5952
04.01.2017 14:15;5088
04.01.2017 14:30;4392
04.01.2017 14:45;5232
04.01.2017 15:00;6192
04.01.2017 15:15;5808
04.01.2017 15:30;6180
04.01.2017 15:45;6420
04.01.2017 16:00;6672
04.01.2017 16:15;6984
04.01.2017 16:30;6948
04.01.2017 16:45;6900
04.01.2017 17:00;6852
04.01.2017 17:15;3672
04.01.2017 17:30;2772
04.01.2017 17:45;5412
04.01.2017 18:00;6660
04.01.2017 18:15;7380
04.01.2017 18:30;7392
04.01.2017 18:45;6660
04.01.2017 19:00;6936
04.01.2017 19:15;6948
04.01.2017 19:30;6624
04.01.2017 19:45;6840
04.01.2017 20:00;7356
04.01.2017 20:15;7464
04.01.2017 20:30;7344
04.01.2017 20:45;7272
04.01.2017 21:00;7524
04.01.2017 21:15;6624
04.01.2017 21:30;5820
04.01.2017 21:45;5484
04.01.2017 22:00;4716
04.01.2017 22:15;4272
04.01.2017 22:30;4368
04.01.2017 22:45;5148
04.01.2017 23:00;4896
04.01.2017 23:15;4020
04.01.2017 23:30;4236
04.01.2017 23:45;5484
05.01.2017 00:00;5520
05.01.2017 00:15;5580
05.01.2017 00:30;5616
05.01.2017 00:45;6072
05.01.2017 01:00;5328
05.01.2017 01:15;5724
05.01.2017 01:30;5244
05.01.2017 01:45;5532
05.01.2017 02:00;4284
05.01.2017 02:15;5688
05.01.2017 02:30;6924
05.01.2017 02:45;6408
05.01.2017 03:00;5928
05.01.2017 03:15;6012
05.01.2017 03:30;4968
05.01.2017 03:45;4980
05.01.2017 04:00;4692
05.01.2017 04:15;4560
05.01.2017 04:30;5028
05.01.2017 04:45;4800
05.01.2017 05:00;4932
05.01.2017 05:15;4200
05.01.2017 05:30;2628
05.01.2017 05:45;1500
05.01.2017 06:00;1164
05.01.2017 06:15;1128
05.01.2017 06:30;996
05.01.2017 06:45;2700
05.01.2017 07:00;3024
05.01.2017 07:15;1536
05.01.2017 07:30;564
05.01.2017 07:45;636
05.01.2017 08:00;1176
05.01.2017 08:15;1296
05.01.2017 08:30;1116
05.01.2017 08:45;792
05.01.2017 09:00;1056
05.01.2017 09:15;1176
05.01.2017 09:30;2688
05.01.2017 09:45;1836
05.01.2017 10:00;1308
05.01.2017 10:15;864
05.01.2017 10:30;720
05.01.2017 10:45;792
05.01.2017 11:00;756
05.01.2017 11:15;768
05.01.2017 11:30;720
05.01.2017 11:45;708
05.01.2017 12:00;1284
05.01.2017 12:15;1572
05.01.2017 12:30;1776
05.01.2017 12:45;2196
05.01.2017 13:00;1056
05.01.2017 13:15;804
05.01.2017 13:30;1068
05.01.2017 13:45;840
05.01.2017 14:00;780
05.01.2017 14:15;1356
05.01.2017 14:30;900
05.01.2017 14:45;900
05.01.2017 15:00;912
05.01.2017 15:15;924
05.01.2017 15:30;1068
05.01.2017 15:45;1260
05.01.2017 16:00;1224
05.01.2017 16:15;1176
05.01.2017 16:30;1248
05.01.2017 16:45;1152
05.01.2017 17:00;1212
05.01.2017 17:15;1152
05.01.2017 17:30;1188
05.01.2017 17:45;1356
05.01.2017 18:00;1440
05.01.2017 18:15;2076
05.01.2017 18:30;2484
05.01.2017 18:45;2292
05.01.2017 19:00;1296
05.01.2017 19:15;1320
05.01.2017 19:30;1332
05.01.2017 19:45;1320
05.01.2017 20:00;1296
05.01.2017 20:15;1248
05.01.2017 20:30;1248
05.01.2017 20:45;1200
05.01.2017 21:00;1392
05.01.2017 21:15;1872
05.01.2017 21:30;3156
05.01.2017 21:45;2244
05.01.2017 22:00;1260
05.01.2017 22:15;1248
05.01.2017 22:30;1260
05.01.2017 22:45;1284
05.01.2017 23:00;1332
05.01.2017 23:15;1332
05.01.2017 23:30;1332
05.01.2017 23:45;1308
06.01.2017 00:00;1284
06.01.2017 00:15;1320
06.01.2017 00:30;1284
06.01.2017 00:45;1200
06.01.2017 01:00;1200
06.01.2017 01:15;1296
06.01.2017 01:30;1248
06.01.2017 01:45;1308
06.01.2017 02:00;1248
06.01.2017 02:15;1152
06.01.2017 02:30;1176
06.01.2017 02:45;1164
06.01.2017 03:00;1356
06.01.2017 03:15;1416
06.01.2017 03:30;1464
06.01.2017 03:45;1560
06.01.2017 04:00;1524
06.01.2017 04:15;1476
06.01.2017 04:30;1524
06.01.2017 04:45;1560
06.01.2017 05:00;1524
06.01.2017 05:15;1476
06.01.2017 05:30;1404
06.01.2017 05:45;1440
06.01.2017 06:00;1380
06.01.2017 06:15;1212
06.01.2017 06:30;1188
06.01.2017 06:45;1152
06.01.2017 07:00;1164
06.01.2017 07:15;1140
06.01.2017 07:30;1056
06.01.2017 07:45;1044
06.01.2017 08:00;996
06.01.2017 08:15;912
06.01.2017 08:30;1032
06.01.2017 08:45;1032
06.01.2017 09:00;1032
06.01.2017 09:15;1092
06.01.2017 09:30;1080
06.01.2017 09:45;1008
06.01.2017 10:00;1032
06.01.2017 10:15;792
06.01.2017 10:30;24
06.01.2017 10:45;420
06.01.2017 11:00;408
06.01.2017 11:15;708
06.01.2017 11:30;1140
06.01.2017 11:45;1188
06.01.2017 12:00;1236
06.01.2017 12:15;1200
06.01.2017 12:30;1188
06.01.2017 12:45;1152
06.01.2017 13:00;1080
06.01.2017 13:15;1224
06.01.2017 13:30;1188
06.01.2017 13:45;1224
06.01.2017 14:00;1284
06.01.2017 14:15;1164
06.01.2017 14:30;1260
06.01.2017 14:45;1164
06.01.2017 15:00;1200
06.01.2017 15:15;1140
06.01.2017 15:30;1068
06.01.2017 15:45;972
06.01.2017 16:00;948
06.01.2017 16:15;960
06.01.2017 16:30;984
06.01.2017 16:45;1056
06.01.2017 17:00;1044
06.01.2017 17:15;1044
06.01.2017 17:30;1128
06.01.2017 17:45;1140
06.01.2017 18:00;1104
06.01.2017 18:15;1116
06.01.2017 18:30;1224
06.01.2017 18:45;1152
06.01.2017 19:00;1272
06.01.2017 19:15;1224
06.01.2017 19:30;1296
06.01.2017 19:45;1248
06.01.2017 20:00;1284
06.01.2017 20:15;1284
06.01.2017 20:30;1152
06.01.2017 20:45;1200
06.01.2017 21:00;1212
06.01.2017 21:15;1272
06.01.2017 21:30;1356
06.01.2017 21:45;1392
06.01.2017 22:00;1536
06.01.2017 22:15;1524
06.01.2017 22:30;1428
06.01.2017 22:45;1452
06.01.2017 23:00;1476
06.01.2017 23:15;1560
06.01.2017 23:30;1524
06.01.2017 23:45;1476
07.01.2017 00:00;1428
07.01.2017 00:15;1452
07.01.2017 00:30;1524
07.01.2017 00:45;1536
07.01.2017 01:00;1536
07.01.2017 01:15;1500
07.01.2017 01:30;1488
07.01.2017 01:45;1464
07.01.2017 02:00;1524
07.01.2017 02:15;1488
07.01.2017 02:30;1536
07.01.2017 02:45;1524
07.01.2017 03:00;1452
07.01.2017 03:15;1452
07.01.2017 03:30;1392
07.01.2017 03:45;1368
07.01.2017 04:00;1416
07.01.2017 04:15;1356
07.01.2017 04:30;1392
07.01.2017 04:45;1380
07.01.2017 05:00;1392
07.01.2017 05:15;1500
07.01.2017 05:30;1488
07.01.2017 05:45;1476
07.01.2017 06:00;1476
07.01.2017 06:15;1464
07.01.2017 06:30;1392
07.01.2017 06:45;1356
07.01.2017 07:00;1380
07.01.2017 07:15;1320
07.01.2017 07:30;1308
07.01.2017 07:45;1272
07.01.2017 08:00;1260
07.01.2017 08:15;1308
07.01.2017 08:30;1368
07.01.2017 08:45;1440
07.01.2017 09:00;1452
07.01.2017 09:15;1560
07.01.2017 09:30;1596
07.01.2017 09:45;1620
07.01.2017 10:00;1548
07.01.2017 10:15;1536
07.01.2017 10:30;1500
07.01.2017 10:45;1464
07.01.2017 11:00;1488
07.01.2017 11:15;1500
07.01.2017 11:30;1440
07.01.2017 11:45;1500
07.01.2017 12:00;1536
07.01.2017 12:15;1656
07.01.2017 12:30;1548
07.01.2017 12:45;1476
07.01.2017 13:00;1380
07.01.2017 13:15;1380
07.01.2017 13:30;1416
07.01.2017 13:45;1332
07.01.2017 14:00;1296
07.01.2017 14:15;1296
07.01.2017 14:30;1308
07.01.2017 14:45;1344
07.01.2017 15:00;1260
07.01.2017 15:15;1284
07.01.2017 15:30;1260
07.01.2017 15:45;1224
07.01.2017 16:00;1212
07.01.2017 16:15;1368
07.01.2017 16:30;1356
07.01.2017 16:45;1308
07.01.2017 17:00;1236
07.01.2017 17:15;1272
07.01.2017 17:30;1176
07.01.2017 17:45;1224
07.01.2017 18:00;1080
07.01.2017 18:15;1128
07.01.2017 18:30;1104
07.01.2017 18:45;1092
07.01.2017 19:00;1164
07.01.2017 19:15;1128
07.01.2017 19:30;1128
07.01.2017 19:45;1260
07.01.2017 20:00;1260
07.01.2017 20:15;1272
07.01.2017 20:30;1452
07.01.2017 20:45;1440
07.01.2017 21:00;1488
07.01.2017 21:15;1332
07.01.2017 21:30;1356
07.01.2017 21:45;1380
07.01.2017 22:00;1368
07.01.2017 22:15;1368
07.01.2017 22:30;1416
07.01.2017 22:45;1428
07.01.2017 23:00;1440
07.01.2017 23:15;1428
07.01.2017 23:30;1416
07.01.2017 23:45;1560
08.01.2017 00:00;1440
08.01.2017 00:15;1320
08.01.2017 00:30;1560
08.01.2017 00:45;1644
08.01.2017 01:00;1848
08.01.2017 01:15;2304
08.01.2017 01:30;1980
08.01.2017 01:45;1680
08.01.2017 02:00;1836
08.01.2017 02:15;1560
08.01.2017 02:30;1380
08.01.2017 02:45;1488
08.01.2017 03:00;1800
08.01.2017 03:15;1836
08.01.2017 03:30;2172
08.01.2017 03:45;2424
08.01.2017 04:00;1884
08.01.2017 04:15;1308
08.01.2017 04:30;1680
08.01.2017 04:45;2148
08.01.2017 05:00;1392
08.01.2017 05:15;1740
08.01.2017 05:30;1680
08.01.2017 05:45;1320
08.01.2017 06:00;1236
08.01.2017 06:15;1188
08.01.2017 06:30;1128
08.01.2017 06:45;1212
08.01.2017 07:00;1380
08.01.2017 07:15;1644
08.01.2017 07:30;1188
08.01.2017 07:45;1200
08.01.2017 08:00;1284
08.01.2017 08:15;1332
08.01.2017 08:30;1344
08.01.2017 08:45;1404
08.01.2017 09:00;1452
08.01.2017 09:15;1428
08.01.2017 09:30;1488
08.01.2017 09:45;1428
08.01.2017 10:00;1440
08.01.2017 10:15;1524
08.01.2017 10:30;1500
08.01.2017 10:45;1560
08.01.2017 11:00;1428
08.01.2017 11:15;1380
08.01.2017 11:30;1392
08.01.2017 11:45;1356
08.01.2017 12:00;1332
08.01.2017 12:15;1236
08.01.2017 12:30;1188
08.01.2017 12:45;1308
08.01.2017 13:00;1428
08.01.2017 13:15;1464
08.01.2017 13:30;1512
08.01.2017 13:45;1464
08.01.2017 14:00;1368
08.01.2017 14:15;1344
08.01.2017 14:30;1308
08.01.2017 14:45;1332
08.01.2017 15:00;1356
08.01.2017 15:15;1308
08.01.2017 15:30;1332
08.01.2017 15:45;1344
08.01.2017 16:00;1344
08.01.2017 16:15;1308
08.01.2017 16:30;1092
08.01.2017 16:45;1056
08.01.2017 17:00;972
08.01.2017 17:15;924
08.01.2017 17:30;996
08.01.2017 17:45;924
08.01.2017 18:00;840
08.01.2017 18:15;972
08.01.2017 18:30;960
08.01.2017 18:45;1008
08.01.2017 19:00;1236
08.01.2017 19:15;1224
08.01.2017 19:30;1296
08.01.2017 19:45;1236
08.01.2017 20:00;1236
08.01.2017 20:15;1368
08.01.2017 20:30;1272
08.01.2017 20:45;1332
08.01.2017 21:00;1344
08.01.2017 21:15;1428
08.01.2017 21:30;1320
08.01.2017 21:45;1368
08.01.2017 22:00;1404
08.01.2017 22:15;1452
08.01.2017 22:30;1452
08.01.2017 22:45;1416
08.01.2017 23:00;1440
08.01.2017 23:15;1368
08.01.2017 23:30;1428
08.01.2017 23:45;1464
09.01.2017 00:00;1380
09.01.2017 00:15;1392
09.01.2017 00:30;1320
09.01.2017 00:45;1404
09.01.2017 01:00;1296
09.01.2017 01:15;1224
09.01.2017 01:30;1272
09.01.2017 01:45;1188
09.01.2017 02:00;1176
09.01.2017 02:15;1188
09.01.2017 02:30;1128
09.01.2017 02:45;1224
09.01.2017 03:00;1212
09.01.2017 03:15;1176
09.01.2017 03:30;1176
09.01.2017 03:45;1188
09.01.2017 04:00;1152
09.01.2017 04:15;1128
09.01.2017 04:30;1044
09.01.2017 04:45;1104
09.01.2017 05:00;1188
09.01.2017 05:15;1128
09.01.2017 05:30;1104
09.01.2017 05:45;1044
09.01.2017 06:00;1068
09.01.2017 06:15;1104
09.01.2017 06:30;1068
09.01.2017 06:45;996
09.01.2017 07:00;792
09.01.2017 07:15;744
09.01.2017 07:30;720
09.01.2017 07:45;696
09.01.2017 08:00;684
09.01.2017 08:15;672
09.01.2017 08:30;660
09.01.2017 08:45;804
09.01.2017 09:00;780
09.01.2017 09:15;876
09.01.2017 09:30;684
09.01.2017 09:45;696
09.01.2017 10:00;684
09.01.2017 10:15;636
09.01.2017 10:30;648
09.01.2017 10:45;600
09.01.2017 11:00;600
09.01.2017 11:15;624
09.01.2017 11:30;588
09.01.2017 11:45;732
09.01.2017 12:00;708
09.01.2017 12:15;636
09.01.2017 12:30;696
09.01.2017 12:45;780
09.01.2017 13:00;876
09.01.2017 13:15;780
09.01.2017 13:30;852
09.01.2017 13:45;924
09.01.2017 14:00;756
09.01.2017 14:15;660
09.01.2017 14:30;660
09.01.2017 14:45;744
09.01.2017 15:00;768
09.01.2017 15:15;732
09.01.2017 15:30;756
09.01.2017 15:45;816
09.01.2017 16:00;768
09.01.2017 16:15;780
09.01.2017 16:30;780
09.01.2017 16:45;684
09.01.2017 17:00;720
09.01.2017 17:15;780
09.01.2017 17:30;864
09.01.2017 17:45;924
09.01.2017 18:00;852
09.01.2017 18:15;900
09.01.2017 18:30;864
09.01.2017 18:45;900
09.01.2017 19:00;960
09.01.2017 19:15;852
09.01.2017 19:30;936
09.01.2017 19:45;1020
09.01.2017 20:00;1152
09.01.2017 20:15;1212
09.01.2017 20:30;1200
09.01.2017 20:45;1488
09.01.2017 21:00;1488
09.01.2017 21:15;1320
09.01.2017 21:30;1356
09.01.2017 21:45;1524
09.01.2017 22:00;1896
09.01.2017 22:15;2256
09.01.2017 22:30;2652
09.01.2017 22:45;1980
09.01.2017 23:00;2352
09.01.2017 23:15;2304
09.01.2017 23:30;1908
09.01.2017 23:45;1416
10.01.2017 00:00;1644
10.01.2017 00:15;1260
10.01.2017 00:30;1644
10.01.2017 00:45;3408
10.01.2017 01:00;3588
10.01.2017 01:15;2796
10.01.2017 01:30;1896
10.01.2017 01:45;1452
10.01.2017 02:00;1212
10.01.2017 02:15;1392
10.01.2017 02:30;1536
10.01.2017 02:45;1584
10.01.2017 03:00;2088
10.01.2017 03:15;2280
10.01.2017 03:30;2940
10.01.2017 03:45;3504
10.01.2017 04:00;3708
10.01.2017 04:15;4224
10.01.2017 04:30;4224
10.01.2017 04:45;4464
10.01.2017 05:00;4200
10.01.2017 05:15;3924
10.01.2017 05:30;5364
10.01.2017 05:45;4380
10.01.2017 06:00;4440
10.01.2017 06:15;4848
10.01.2017 06:30;4812
10.01.2017 06:45;4836
10.01.2017 07:00;3528
10.01.2017 07:15;3444
10.01.2017 07:30;2316
10.01.2017 07:45;2016
10.01.2017 08:00;2184
10.01.2017 08:15;1440
10.01.2017 08:30;1008
10.01.2017 08:45;912
10.01.2017 09:00;780
10.01.2017 09:15;636
10.01.2017 09:30;660
10.01.2017 09:45;756
10.01.2017 10:00;864
10.01.2017 10:15;876
10.01.2017 10:30;804
10.01.2017 10:45;816
10.01.2017 11:00;660
10.01.2017 11:15;672
10.01.2017 11:30;696
10.01.2017 11:45;756
10.01.2017 12:00;804
10.01.2017 12:15;660
10.01.2017 12:30;648
10.01.2017 12:45;636
10.01.2017 13:00;648
10.01.2017 13:15;540
10.01.2017 13:30;612
10.01.2017 13:45;684
10.01.2017 14:00;660
10.01.2017 14:15;684
10.01.2017 14:30;636
10.01.2017 14:45;672
10.01.2017 15:00;756
10.01.2017 15:15;732
10.01.2017 15:30;744
10.01.2017 15:45;732
10.01.2017 16:00;792
10.01.2017 16:15;852
10.01.2017 16:30;816
10.01.2017 16:45;984
10.01.2017 17:00;1032
10.01.2017 17:15;888
10.01.2017 17:30;888
10.01.2017 17:45;900
10.01.2017 18:00;816
10.01.2017 18:15;1044
10.01.2017 18:30;1104
10.01.2017 18:45;1128
10.01.2017 19:00;1068
10.01.2017 19:15;1068
10.01.2017 19:30;1044
10.01.2017 19:45;1080
10.01.2017 20:00;1128
10.01.2017 20:15;1188
10.01.2017 20:30;1284
10.01.2017 20:45;1260
10.01.2017 21:00;1248
10.01.2017 21:15;1260
10.01.2017 21:30;1392
10.01.2017 21:45;1284
10.01.2017 22:00;1260
10.01.2017 22:15;1224
10.01.2017 22:30;1176
10.01.2017 22:45;1248
10.01.2017 23:00;1296
10.01.2017 23:15;1344
10.01.2017 23:30;1260
10.01.2017 23:45;1188
11.01.2017 00:00;1176
11.01.2017 00:15;1080
11.01.2017 00:30;1044
11.01.2017 00:45;960
11.01.2017 01:00;948
11.01.2017 01:15;972
11.01.2017 01:30;948
11.01.2017 01:45;960
11.01.2017 02:00;996
11.01.2017 02:15;1044
11.01.2017 02:30;972
11.01.2017 02:45;948
11.01.2017 03:00;924
11.01.2017 03:15;996
11.01.2017 03:30;948
11.01.2017 03:45;1008
11.01.2017 04:00;996
11.01.2017 04:15;1044
11.01.2017 04:30;1044
11.01.2017 04:45;1008
11.01.2017 05:00;1032
11.01.2017 05:15;924
11.01.2017 05:30;828
11.01.2017 05:45;912
11.01.2017 06:00;912
11.01.2017 06:15;804
11.01.2017 06:30;720
11.01.2017 06:45;648
11.01.2017 07:00;564
11.01.2017 07:15;888
11.01.2017 07:30;1836
11.01.2017 07:45;2712
11.01.2017 08:00;3204
11.01.2017 08:15;2760
11.01.2017 08:30;4416
11.01.2017 08:45;3408
11.01.2017 09:00;1848
11.01.2017 09:15;2928
11.01.2017 09:30;2556
11.01.2017 09:45;2952
11.01.2017 10:00;3276
11.01.2017 10:15;3144
11.01.2017 10:30;3072
11.01.2017 10:45;2832
11.01.2017 11:00;2664
11.01.2017 11:15;3048
11.01.2017 11:30;3312
11.01.2017 11:45;6168
11.01.2017 12:00;6204
11.01.2017 12:15;6096
11.01.2017 12:30;6084
11.01.2017 12:45;6084
11.01.2017 13:00;6084
11.01.2017 13:15;6084
11.01.2017 13:30;6180
11.01.2017 13:45;6300
11.01.2017 14:00;6324
11.01.2017 14:15;6156
11.01.2017 14:30;6012
11.01.2017 14:45;6192
11.01.2017 15:00;6216
11.01.2017 15:15;6228
11.01.2017 15:30;6396
11.01.2017 15:45;6372
11.01.2017 16:00;6564
11.01.2017 16:15;6444
11.01.2017 16:30;6528
11.01.2017 16:45;6840
11.01.2017 17:00;6636
11.01.2017 17:15;6660
11.01.2017 17:30;6684
11.01.2017 17:45;6576
11.01.2017 18:00;6552
11.01.2017 18:15;7068
11.01.2017 18:30;7152
11.01.2017 18:45;6948
11.01.2017 19:00;6984
11.01.2017 19:15;7008
11.01.2017 19:30;6828
11.01.2017 19:45;6792
11.01.2017 20:00;5328
11.01.2017 20:15;2964
11.01.2017 20:30;2664
11.01.2017 20:45;1212
11.01.2017 21:00;1656
11.01.2017 21:15;2340
11.01.2017 21:30;2988
11.01.2017 21:45;5100
11.01.2017 22:00;4944
11.01.2017 22:15;5844